Weather History for Quillayute, WA

Change the Weather History Date:

Thursday, March 6, 2014

  Actual Average Record
Temperature  
Mean Temperature 49 °F 43 °F  
Max Temperature 50 °F 51 °F 69 °F (2001)
Min Temperature 47 °F 36 °F 24 °F (1999)
Degree Days  
Heating Degree Days 16 22  
Month to date heating degree days 106 132  
Since 1 July heating degree days 3300 3977  
Cooling Degree Days 0 0  
Month to date cooling degree days 0 0  
Year to date cooling degree days 0 0  
Moisture  
Dew Point 48 °F    
Average Humidity 97    
Maximum Humidity 100    
Minimum Humidity 93    
Precipitation  
Precipitation 1.04 in 0.36 in 1.50 in (1977)
Month to date precipitation 5.04 2.19  
Year to date precipitation 27.61 27.15  
Sea Level Pressure  
Sea Level Pressure 29.65 in    
Wind  
Wind Speed 12 mph (SSW)    
Max Wind Speed 23 mph    
Max Gust Speed 41 mph    
Visibility 2 miles    
Events Rain    
T = Trace of Precipitation, MM = Missing Value Source: NWS Daily Summary

Daily Weather History Graph

Daily Weather History Graph

Search for Another Location

Airport:

Trip Planner

Search our weather history database for the weather conditions in past years. The results will help you decide how hot, cold, wet, or windy it might be!

Date:

Astronomy

Mar. 06, 2014 Rise Set
Actual Time 6:49 AM PST 6:10 PM PST
Civil Twilight 6:18 AM PST 6:41 PM PST
Nautical Twilight 5:42 AM PST 7:17 PM PST
Astronomical Twilight 5:06 AM PST 7:53 PM PST
Moon 9:35 AM PST (3/6) No Moon Set
Length of Visible Light 12h 23m
Length of Day
11h 21m
Waxing Crescent, 33% of the Moon is Illuminated
Mar 6
Waxing Crescent
Mar 8
First Quarter
Mar 16
Full
Mar 23
Last Quarter
Mar 30
New

Hourly Weather History & Observations

Time (PST) Temp. Windchill Dew Point Humidity Pressure Visibility Wind Dir Wind Speed Gust Speed Precip Events Conditions
12:05 AM 50.0 °F - 50.0 °F 100% 29.37 in 2.5 mi SSW 15.0 mph 31.1 mph N/A   Overcast
12:38 AM 50.0 °F - 48.9 °F 96% 29.39 in 3.0 mi SSW 20.7 mph 29.9 mph 0.00 in   Overcast
12:50 AM 50.0 °F - 48.2 °F 94% 29.39 in 3.0 mi SSW 18.4 mph 32.2 mph 0.00 in   Overcast
12:53 AM 50.0 °F - 48.9 °F 96% 29.39 in 3.0 mi South 13.8 mph 31.1 mph 0.00 in   Overcast
1:00 AM 50.0 °F - 48.9 °F 96% 29.39 in 3.0 mi South 13.8 mph 31.1 mph N/A   Overcast
1:12 AM 50.0 °F - 48.9 °F 96% 29.40 in 3.0 mi South 16.1 mph 32.2 mph N/A   Overcast
1:53 AM 50.0 °F - 48.0 °F 93% 29.41 in 3.0 mi South 15.0 mph 27.6 mph N/A   Overcast
2:08 AM 50.0 °F - 48.9 °F 96% 29.41 in 1.8 mi South 15.0 mph 36.8 mph 0.00 in Rain Light Rain
2:17 AM 50.0 °F - 48.9 °F 96% 29.41 in 3.0 mi South 13.8 mph 31.1 mph 0.01 in Rain Light Rain
2:34 AM 50.0 °F - 48.9 °F 96% 29.40 in 2.0 mi South 16.1 mph 34.5 mph 0.01 in Rain Light Rain
2:45 AM 50.0 °F - 48.9 °F 96% 29.40 in 2.5 mi South 19.6 mph 31.1 mph 0.02 in Rain Light Rain
2:53 AM 50.0 °F - 48.9 °F 96% 29.39 in 2.0 mi South 15.0 mph 32.2 mph 0.03 in Rain Rain
3:17 AM 50.0 °F - 48.9 °F 96% 29.39 in 3.0 mi South 15.0 mph 33.4 mph 0.02 in Rain Light Rain
3:25 AM 50.0 °F - 48.9 °F 96% 29.39 in 2.5 mi South 16.1 mph 33.4 mph 0.03 in Rain Rain
3:53 AM 50.0 °F - 48.9 °F 96% 29.37 in 1.8 mi SSE 15.0 mph 32.2 mph 0.08 in Rain Heavy Rain
4:05 AM 48.9 °F - 48.0 °F 97% 29.35 in 1.5 mi SSE 10.4 mph 24.2 mph 0.06 in Rain Rain
4:13 AM 50.0 °F - 48.9 °F 96% 29.36 in 1.2 mi SSE 16.1 mph 27.6 mph 0.08 in Rain Rain
4:30 AM 50.0 °F - 48.9 °F 96% 29.36 in 1.8 mi South 16.1 mph 35.7 mph 0.10 in Rain Light Rain
4:45 AM 50.0 °F - 48.9 °F 96% 29.36 in 2.0 mi South 17.3 mph 32.2 mph 0.11 in Rain Light Rain
4:53 AM 50.0 °F - 48.9 °F 96% 29.37 in 1.8 mi South 15.0 mph 28.8 mph 0.11 in Rain Light Rain
5:48 AM 48.2 °F - 48.2 °F 100% 29.36 in 2.0 mi South 12.7 mph 32.2 mph 0.05 in Rain Rain
5:53 AM 48.9 °F - 48.9 °F 100% 29.37 in 2.0 mi SSW 18.4 mph 32.2 mph 0.06 in Rain Rain
6:07 AM 48.9 °F - 48.9 °F 100% 29.37 in 1.8 mi South 16.1 mph 29.9 mph 0.05 in Rain Rain
6:16 AM 48.9 °F - 48.9 °F 100% 29.38 in 2.5 mi South 16.1 mph 29.9 mph 0.06 in Rain Light Rain
6:29 AM 48.9 °F - 48.9 °F 100% 29.38 in 1.2 mi South 13.8 mph 27.6 mph 0.11 in Rain Heavy Rain
6:53 AM 48.9 °F - 48.9 °F 100% 29.38 in 1.2 mi South 13.8 mph 21.9 mph 0.20 in Rain Rain
7:04 AM 48.9 °F - 48.9 °F 100% 29.38 in 1.8 mi South 18.4 mph 27.6 mph 0.04 in Rain Light Rain
7:12 AM 48.9 °F - 48.9 °F 100% 29.39 in 2.0 mi South 16.1 mph 29.9 mph 0.04 in Rain Light Rain
7:21 AM 48.9 °F - 48.9 °F 100% 29.39 in 1.5 mi SSW 13.8 mph 28.8 mph 0.05 in Rain Light Rain
7:34 AM 48.9 °F - 48.9 °F 100% 29.39 in 1.0 mi South 15.0 mph 33.4 mph 0.07 in Rain Rain
7:43 AM 48.9 °F - 48.9 °F 100% 29.40 in 2.0 mi South 12.7 mph 27.6 mph 0.07 in Rain Light Rain
7:53 AM 48.9 °F - 48.9 °F 100% 29.40 in 2.5 mi South 11.5 mph 24.2 mph 0.07 in Rain Light Rain
8:34 AM 48.9 °F - 48.9 °F 100% 29.42 in 1.5 mi South 11.5 mph 25.3 mph 0.01 in Rain Rain
8:42 AM 48.9 °F - 48.9 °F 100% 29.42 in 1.0 mi SSW 10.4 mph 25.3 mph 0.03 in Rain Rain
8:49 AM 48.2 °F - 48.2 °F 100% 29.43 in 0.8 mi South 12.7 mph 20.7 mph 0.05 in Rain Rain
8:53 AM 48.9 °F - 48.9 °F 100% 29.43 in 1.0 mi SSW 15.0 mph 21.9 mph 0.05 in Rain Light Rain
9:11 AM 48.9 °F - 48.9 °F 100% 29.44 in 0.8 mi SSW 13.8 mph 23.0 mph 0.04 in Rain Rain
9:18 AM 48.9 °F - 48.9 °F 100% 29.45 in 1.5 mi SSW 9.2 mph 23.0 mph 0.05 in Rain Rain
9:29 AM 48.0 °F - 48.0 °F 100% 29.46 in 1.0 mi SW 13.8 mph 24.2 mph 0.06 in Rain Light Rain
9:37 AM 48.0 °F - 48.0 °F 100% 29.47 in 2.0 mi WSW 12.7 mph - 0.06 in Rain Light Rain
9:46 AM 48.0 °F - 46.9 °F 96% 29.48 in 4.0 mi WSW 13.8 mph - 0.06 in Rain Light Rain
9:53 AM 48.0 °F - 46.9 °F 96% 29.49 in 2.5 mi WSW 15.0 mph - 0.06 in Rain Light Rain
10:11 AM 48.0 °F - 46.9 °F 96% 29.51 in 4.0 mi WSW 9.2 mph - 0.01 in   Overcast
10:29 AM 48.0 °F - 46.9 °F 96% 29.53 in 2.5 mi SW 10.4 mph - 0.01 in   Overcast
10:35 AM 48.0 °F - 46.9 °F 96% 29.54 in 1.2 mi SW 10.4 mph - 0.01 in Rain Light Rain
10:44 AM 48.0 °F - 46.9 °F 96% 29.54 in 0.8 mi SW 16.1 mph 24.2 mph 0.01 in Rain Light Rain
10:53 AM 48.0 °F - 46.9 °F 96% 29.56 in 1.2 mi WSW 13.8 mph 24.2 mph 0.01 in Rain Rain
11:05 AM 48.0 °F - 46.9 °F 96% 29.57 in 1.5 mi WSW 15.0 mph - 0.03 in Rain Rain
11:53 AM 48.0 °F - 46.9 °F 96% 29.62 in 2.5 mi SW 13.8 mph 21.9 mph 0.10 in Rain Light Rain
12:00 PM 48.0 °F - 46.9 °F 96% 29.63 in 3.0 mi SW 12.7 mph - 0.00 in Rain Light Rain
12:49 PM 48.2 °F - 46.4 °F 93% 29.68 in 3.0 mi SSW 8.1 mph - 0.00 in   Overcast
12:53 PM 48.0 °F - 46.9 °F 96% 29.68 in 3.0 mi SW 9.2 mph - 0.00 in   Overcast
1:10 PM 48.9 °F - 48.0 °F 97% 29.70 in 3.0 mi SW 10.4 mph - N/A   Overcast
1:45 PM 48.9 °F - 48.0 °F 97% 29.72 in 4.0 mi SW 10.4 mph - N/A   Overcast
1:53 PM 48.9 °F - 48.0 °F 97% 29.72 in 4.0 mi SW 11.5 mph 20.7 mph N/A   Overcast
2:06 PM 48.9 °F - 48.0 °F 97% 29.73 in 4.0 mi SW 10.4 mph - N/A   Overcast
2:33 PM 50.0 °F - 48.9 °F 96% 29.74 in 4.0 mi SW 13.8 mph 25.3 mph N/A   Overcast
2:53 PM 50.0 °F - 48.0 °F 93% 29.76 in 4.0 mi SW 11.5 mph - N/A   Overcast
3:41 PM 48.9 °F - 48.0 °F 97% 29.79 in 2.5 mi SW 13.8 mph - 0.00 in Rain Light Rain
3:51 PM 48.2 °F - 48.2 °F 100% 29.79 in 1.5 mi SW 9.2 mph - 0.01 in Rain Light Rain
3:53 PM 48.0 °F - 48.0 °F 100% 29.80 in 1.2 mi SW 15.0 mph 19.6 mph 0.01 in Rain Light Rain
3:56 PM 48.0 °F - 46.9 °F 96% 29.80 in 2.0 mi SW 11.5 mph 19.6 mph 0.00 in Rain Light Rain
4:07 PM 48.0 °F - 48.0 °F 100% 29.80 in 4.0 mi SW 10.4 mph - 0.00 in   Overcast
4:26 PM 48.0 °F - 48.0 °F 100% 29.81 in 3.0 mi SW 9.2 mph - 0.00 in   Overcast
4:39 PM 48.0 °F - 48.0 °F 100% 29.82 in 1.8 mi SW 10.4 mph - 0.00 in   Overcast
4:53 PM 48.0 °F - 48.0 °F 100% 29.83 in 1.5 mi SW 10.4 mph - 0.00 in   Overcast
5:00 PM 48.0 °F - 48.0 °F 100% 29.83 in 1.0 mi SW 8.1 mph - 0.00 in Rain Light Rain
5:05 PM 48.0 °F - 48.0 °F 100% 29.83 in 2.0 mi SW 8.1 mph - 0.00 in Rain Light Rain
5:19 PM 48.0 °F - 48.0 °F 100% 29.84 in 1.2 mi SW 6.9 mph - 0.00 in Rain Light Rain
5:34 PM 48.0 °F - 46.9 °F 96% 29.85 in 1.5 mi SSW 8.1 mph - 0.00 in   Overcast
5:39 PM 48.0 °F - 48.0 °F 100% 29.85 in 1.0 mi SSW 8.1 mph - 0.00 in   Overcast
5:50 PM 46.4 °F 42.4 °F 46.4 °F 100% 29.86 in 2.0 mi SSW 8.1 mph - 0.00 in   Overcast
5:53 PM 46.9 °F - 46.9 °F 100% 29.86 in 2.5 mi SSW 5.8 mph - 0.00 in   Overcast
6:01 PM 46.9 °F - 46.9 °F 100% 29.86 in 4.0 mi SW 8.1 mph - N/A   Overcast
6:09 PM 46.9 °F - 46.9 °F 100% 29.87 in 3.0 mi SW 6.9 mph - N/A   Overcast
6:14 PM 46.9 °F - 46.9 °F 100% 29.87 in 1.8 mi SW 5.8 mph - 0.00 in Rain Light Rain
6:24 PM 46.9 °F - 46.9 °F 100% 29.88 in 1.2 mi SW 10.4 mph - 0.02 in Rain Rain
6:53 PM 46.9 °F - 46.9 °F 100% 29.91 in 1.2 mi SSW 9.2 mph - 0.07 in Rain Rain
7:32 PM 48.0 °F - 46.9 °F 96% 29.92 in 1.5 mi SW 11.5 mph - 0.07 in Rain Light Rain
7:53 PM 48.0 °F - 46.9 °F 96% 29.94 in 1.5 mi SW 9.2 mph - 0.08 in Rain Light Rain
8:14 PM 48.0 °F - 46.9 °F 96% 29.95 in 3.0 mi Variable 6.9 mph - 0.01 in Rain Light Rain
8:22 PM 48.0 °F - 46.9 °F 96% 29.95 in 1.8 mi WSW 11.5 mph - 0.01 in Rain Light Rain
8:32 PM 46.9 °F - 46.9 °F 100% 29.96 in 1.0 mi SW 15.0 mph 18.4 mph 0.04 in Rain Rain
8:53 PM 48.0 °F - 48.0 °F 100% 29.98 in 1.8 mi SSW 12.7 mph 16.1 mph 0.07 in Rain Light Rain
8:57 PM 48.0 °F - 48.0 °F 100% 29.98 in 3.0 mi SSW 10.4 mph 17.3 mph 0.00 in Rain Light Rain
9:23 PM 48.0 °F - 48.0 °F 100% 30.00 in 2.0 mi SW 10.4 mph - 0.00 in Rain Light Rain
9:32 PM 48.0 °F - 46.9 °F 96% 30.01 in 5.0 mi SW 10.4 mph - 0.00 in   Overcast
9:53 PM 48.0 °F - 46.9 °F 96% 30.02 in 3.0 mi SW 10.4 mph - 0.00 in Rain Light Rain
9:57 PM 46.9 °F - 46.9 °F 100% 30.02 in 1.8 mi WSW 10.4 mph - 0.01 in Rain Light Rain
10:03 PM 46.9 °F - 46.9 °F 100% 30.01 in 1.2 mi SW 6.9 mph - 0.02 in Rain Light Rain
10:09 PM 46.9 °F - 46.9 °F 100% 30.01 in 1.5 mi SW 8.1 mph - 0.03 in Rain Light Rain
10:16 PM 46.9 °F - 46.9 °F 100% 30.02 in 2.5 mi WSW 5.8 mph - 0.03 in Rain Light Rain
10:24 PM 46.9 °F - 46.9 °F 100% 30.02 in 2.5 mi WSW 5.8 mph - 0.03 in   Overcast
10:31 PM 46.9 °F - 46.9 °F 100% 30.03 in 4.0 mi SW 5.8 mph - 0.03 in   Overcast
10:53 PM 46.9 °F - 46.9 °F 100% 30.05 in 4.0 mi WSW 10.4 mph - 0.03 in Rain Light Rain
11:07 PM 46.9 °F - 46.9 °F 100% 30.04 in 4.0 mi SSW 10.4 mph - 0.00 in Rain Light Rain
11:53 PM 46.9 °F - 46.9 °F 100% 30.07 in 2.5 mi SW 6.9 mph - 0.00 in Rain Light Rain